Regional Weather Roundup
Issued by NWS Goodland, KS

Home | Current Version | Previous Version | Text Only | Print | Product List | Glossary Off
Versions: 1 2 3 4 5 6 7 8 9 10 11 12 13 14 15 16 17 18 19 20 21 22 23 24 25 26 27 28 29 30 31 32 33 34 35 36 37 38 39 40 41 42 43 44 45 46 47 48 49 50

000
ASUS43 KGLD 301459
RWRGLD

GOODLAND FORECAST AREA HOURLY WEATHER ROUNDUP
NATIONAL WEATHER SERVICE GOODLAND KS
900 AM MDT THU JUL 30 2015

...OFFICIAL OBSERVATIONS...

CITY           SKY/WX    TMP DP  RH WIND       PRES   REMARKS
GOODLAND KS    SUNNY     73  65  75 SW14      30.30S
HILL CITY KS   MOSUNNY   75  66  73 S6        30.27F
IMPERIAL NEB   SUNNY     75  60  59 S8        30.28S
MCCOOK NEB     MOSUNNY   76  65  68 S7        30.27S
AKRON CO       SUNNY     73  63  70 S13       30.33R
BURLINGTON CO  CLOUDY    71  64  78 S13       30.34R
LIMON CO       CLOUDY    66  61  84 S8        30.39R
$$

...UNOFFICIAL OBSERVATIONS...

CITY           SKY/WX    TMP DP  RH WIND       PRES   REMARKS
COLBY KS       SUNNY     73  66  78 S13       30.31S
NORTON KS      SUNNY     75  63  64 S8        30.26S
SHARON SPRINGS   N/A     72  68  87 CALM        N/A
KIT CARSON CO    N/A     70  64  82 MISG        N/A
YUMA CO          N/A     73  65  77 W10         N/A
$$



USA.gov is the U.S. government's official web portal to all federal, state and local government web resources and services.